| time (UTC) | temp F | wind direction | speed MPH | gust MPH | rain 1hr in | rain 24hr in | rain mn in | humidity % | barometer mb |
| 20260502100358 | 89 | 0 | 0.0 | 0.0 | 0.00 | 0.00 | 0.00 | 62 | 988.6 |
| 20260502091229 | 95 | 0 | 0.0 | 0.0 | 0.00 | 0.00 | 0.00 | 57 | 988.1 |
| 20260502090720 | 95 | 0 | 0.0 | 0.0 | 0.00 | 0.00 | 0.00 | 57 | 988.1 |
| 20260502090212 | 95 | 0 | 0.0 | 0.0 | 0.00 | 0.00 | 0.00 | 56 | 987.9 |
| 20260502071413 | 107 | 0 | 0.0 | 0.0 | 0.00 | 0.00 | 0.00 | 48 | 988.1 |
| 20260502070903 | 108 | 0 | 0.0 | 0.0 | 0.00 | 0.00 | 0.00 | 47 | 988.1 |
| 20260502070355 | 108 | 0 | 0.0 | 0.0 | 0.00 | 0.00 | 0.00 | 48 | 988.2 |
| 20260502065846 | 108 | 0 | 0.0 | 0.0 | 0.00 | 0.00 | 0.00 | 49 | 988.3 |
| 20260502065338 | 107 | 0 | 0.0 | 0.0 | 0.00 | 0.00 | 0.00 | 49 | 988.5 |
| 20260502064831 | 107 | 0 | 0.0 | 0.0 | 0.00 | 0.00 | 0.00 | 49 | 988.6 |
| 20260502064321 | 108 | 0 | 0.0 | 0.0 | 0.00 | 0.00 | 0.00 | 48 | 988.7 |
| 20260502063811 | 109 | 0 | 0.0 | 0.0 | 0.00 | 0.00 | 0.00 | 47 | 988.8 |
| 20260502063301 | 109 | 0 | 0.0 | 0.0 | 0.00 | 0.00 | 0.00 | 46 | 988.8 |
| 20260502062751 | 109 | 0 | 0.0 | 0.0 | 0.00 | 0.00 | 0.00 | 47 | 988.9 |
| 20260502062242 | 110 | 0 | 0.0 | 0.0 | 0.00 | 0.00 | 0.00 | 46 | 989.0 |
| 20260502061734 | 112 | 0 | 0.0 | 0.0 | 0.00 | 0.00 | 0.00 | 46 | 989.1 |
| 20260502061226 | 115 | 0 | 0.0 | 0.0 | 0.00 | 0.00 | 0.00 | 48 | 989.2 |
| 20260502060719 | 114 | 0 | 0.0 | 0.0 | 0.00 | 0.00 | 0.00 | 48 | 989.2 |
| 20260502060209 | 113 | 0 | 0.0 | 0.0 | 0.00 | 0.00 | 0.00 | 47 | 989.3 |
| 20260502055700 | 112 | 0 | 0.0 | 0.0 | 0.00 | 0.00 | 0.00 | 50 | 989.5 |
| 20260502055152 | 112 | 0 | 0.0 | 0.0 | 0.00 | 0.00 | 0.00 | 49 | 989.6 |
| 20260502054643 | 114 | 0 | 0.0 | 0.0 | 0.00 | 0.00 | 0.00 | 47 | 989.7 |
| 20260502054135 | 113 | 0 | 0.0 | 0.0 | 0.00 | 0.00 | 0.00 | 52 | 989.7 |
| 20260502053627 | 112 | 0 | 0.0 | 0.0 | 0.00 | 0.00 | 0.00 | 54 | 989.8 |
| 20260502053117 | 108 | 0 | 0.0 | 0.0 | 0.00 | 0.00 | 0.00 | 56 | 989.8 |
| 20260502052607 | 108 | 0 | 0.0 | 0.0 | 0.00 | 0.00 | 0.00 | 56 | 989.9 |
| 20260502052059 | 108 | 0 | 0.0 | 0.0 | 0.00 | 0.00 | 0.00 | 55 | 990.1 |
| 20260502051545 | 109 | 0 | 0.0 | 0.0 | 0.00 | 0.00 | 0.00 | 55 | 990.2 |
| 20260502051037 | 110 | 0 | 0.0 | 0.0 | 0.00 | 0.00 | 0.00 | 55 | 990.2 |
| 20260502050525 | 112 | 0 | 0.0 | 0.0 | 0.00 | 0.00 | 0.00 | 52 | 990.3 |
| 20260502050017 | 114 | 0 | 0.0 | 0.0 | 0.00 | 0.00 | 0.00 | 53 | 990.4 |
| 20260502045507 | 115 | 0 | 0.0 | 0.0 | 0.00 | 0.00 | 0.00 | 52 | 990.4 |
| 20260502044959 | 115 | 0 | 0.0 | 0.0 | 0.00 | 0.00 | 0.00 | 52 | 990.4 |
| 20260502044448 | 113 | 0 | 0.0 | 0.0 | 0.00 | 0.00 | 0.00 | 54 | 990.5 |
| 20260502043938 | 111 | 0 | 0.0 | 0.0 | 0.00 | 0.00 | 0.00 | 54 | 990.5 |
| 20260502043429 | 107 | 0 | 0.0 | 0.0 | 0.00 | 0.00 | 0.00 | 57 | 990.6 |
| 20260502042917 | 103 | 0 | 0.0 | 0.0 | 0.00 | 0.00 | 0.00 | 60 | 990.7 |
| 20260502042409 | 103 | 0 | 0.0 | 0.0 | 0.00 | 0.00 | 0.00 | 60 | 990.7 |
| 20260502041900 | 103 | 0 | 0.0 | 0.0 | 0.00 | 0.00 | 0.00 | 61 | 990.7 |
| 20260502041352 | 105 | 0 | 0.0 | 0.0 | 0.00 | 0.00 | 0.00 | 61 | 990.8 |
| 20260502040842 | 108 | 0 | 0.0 | 0.0 | 0.00 | 0.00 | 0.00 | 60 | 990.9 |
| 20260502040332 | 110 | 0 | 0.0 | 0.0 | 0.00 | 0.00 | 0.00 | 58 | 991.0 |
| 20260502035821 | 113 | 0 | 0.0 | 0.0 | 0.00 | 0.00 | 0.00 | 56 | 991.1 |
| 20260502035311 | 111 | 0 | 0.0 | 0.0 | 0.00 | 0.00 | 0.00 | 57 | 991.2 |
| 20260502034802 | 110 | 0 | 0.0 | 0.0 | 0.00 | 0.00 | 0.00 | 61 | 991.3 |
| 20260502034255 | 108 | 0 | 0.0 | 0.0 | 0.00 | 0.00 | 0.00 | 58 | 991.4 |
| 20260502033747 | 105 | 0 | 0.0 | 0.0 | 0.00 | 0.00 | 0.00 | 64 | 991.5 |
| 20260502033237 | 105 | 0 | 0.0 | 0.0 | 0.00 | 0.00 | 0.00 | 61 | 991.6 |
| 20260502032730 | 106 | 0 | 0.0 | 0.0 | 0.00 | 0.00 | 0.00 | 63 | 991.7 |
| 20260502032221 | 105 | 0 | 0.0 | 0.0 | 0.00 | 0.00 | 0.00 | 64 | 991.7 |
| 20260502031714 | 105 | 0 | 0.0 | 0.0 | 0.00 | 0.00 | 0.00 | 63 | 991.8 |
| 20260502031203 | 106 | 0 | 0.0 | 0.0 | 0.00 | 0.00 | 0.00 | 63 | 991.8 |
| 20260502030654 | 106 | 0 | 0.0 | 0.0 | 0.00 | 0.00 | 0.00 | 63 | 991.9 |
| 20260502030146 | 104 | 0 | 0.0 | 0.0 | 0.00 | 0.00 | 0.00 | 66 | 991.9 |
| 20260502025638 | 106 | 0 | 0.0 | 0.0 | 0.00 | 0.00 | 0.00 | 62 | 991.9 |
| 20260502025127 | 107 | 0 | 0.0 | 0.0 | 0.00 | 0.00 | 0.00 | 60 | 991.9 |
| 20260502024619 | 107 | 0 | 0.0 | 0.0 | 0.00 | 0.00 | 0.00 | 61 | 991.8 |
| 20260502024109 | 107 | 0 | 0.0 | 0.0 | 0.00 | 0.00 | 0.00 | 61 | 991.9 |
| 20260502023602 | 108 | 0 | 0.0 | 0.0 | 0.00 | 0.00 | 0.00 | 66 | 991.9 |
| 20260502023052 | 108 | 0 | 0.0 | 0.0 | 0.00 | 0.00 | 0.00 | 66 | 991.9 |
| 20260502022542 | 107 | 0 | 0.0 | 0.0 | 0.00 | 0.00 | 0.00 | 67 | 991.9 |
| 20260502022032 | 107 | 0 | 0.0 | 0.0 | 0.00 | 0.00 | 0.00 | 68 | 992.0 |
| 20260502021524 | 107 | 0 | 0.0 | 0.0 | 0.00 | 0.00 | 0.00 | 67 | 992.0 |
| 20260502021013 | 107 | 0 | 0.0 | 0.0 | 0.00 | 0.00 | 0.00 | 66 | 992.0 |
| 20260502020504 | 107 | 0 | 0.0 | 0.0 | 0.00 | 0.00 | 0.00 | 67 | 992.0 |
| 20260502015955 | 106 | 0 | 0.0 | 0.0 | 0.00 | 0.00 | 0.00 | 68 | 992.1 |
| 20260502015447 | 106 | 0 | 0.0 | 0.0 | 0.00 | 0.00 | 0.00 | 69 | 992.1 |
| 20260502014938 | 105 | 0 | 0.0 | 0.0 | 0.00 | 0.00 | 0.00 | 70 | 992.1 |
| 20260502014427 | 104 | 0 | 0.0 | 0.0 | 0.00 | 0.00 | 0.00 | 70 | 992.1 |
| 20260502013917 | 103 | 0 | 0.0 | 0.0 | 0.00 | 0.00 | 0.00 | 71 | 992.1 |
| 20260502013406 | 102 | 0 | 0.0 | 0.0 | 0.00 | 0.00 | 0.00 | 71 | 992.0 |
| 20260502012857 | 101 | 0 | 0.0 | 0.0 | 0.00 | 0.00 | 0.00 | 72 | 991.9 |
| 20260502012347 | 100 | 0 | 0.0 | 0.0 | 0.00 | 0.00 | 0.00 | 75 | 991.8 |
| 20260502011838 | 98 | 0 | 0.0 | 0.0 | 0.00 | 0.00 | 0.00 | 76 | 991.8 |
| 20260502011329 | 96 | 0 | 0.0 | 0.0 | 0.00 | 0.00 | 0.00 | 76 | 991.8 |
| 20260502010820 | 94 | 0 | 0.0 | 0.0 | 0.00 | 0.00 | 0.00 | 77 | 991.8 |
| 20260502010311 | 92 | 0 | 0.0 | 0.0 | 0.00 | 0.00 | 0.00 | 78 | 991.8 |
| 20260502005801 | 90 | 0 | 0.0 | 0.0 | 0.00 | 0.00 | 0.00 | 81 | 991.7 |
| 20260502005253 | 87 | 0 | 0.0 | 0.0 | 0.00 | 0.00 | 0.00 | 84 | 991.6 |
| 20260502004742 | 84 | 0 | 0.0 | 0.0 | 0.00 | 0.00 | 0.00 | 84 | 991.6 |
| 20260502004234 | 83 | 0 | 0.0 | 0.0 | 0.00 | 0.00 | 0.00 | 83 | 991.6 |
| 20260502003726 | 82 | 0 | 0.0 | 0.0 | 0.00 | 0.00 | 0.00 | 83 | 991.6 |
| 20260502003216 | 82 | 0 | 0.0 | 0.0 | 0.00 | 0.00 | 0.00 | 83 | 991.5 |
| 20260502002707 | 82 | 0 | 0.0 | 0.0 | 0.00 | 0.00 | 0.00 | 83 | 991.5 |
| 20260502002155 | 81 | 0 | 0.0 | 0.0 | 0.00 | 0.00 | 0.00 | 83 | 991.6 |
| 20260502001646 | 81 | 0 | 0.0 | 0.0 | 0.00 | 0.00 | 0.00 | 83 | 991.6 |
| 20260502001138 | 81 | 0 | 0.0 | 0.0 | 0.00 | 0.00 | 0.00 | 83 | 991.6 |
| 20260502000629 | 80 | 0 | 0.0 | 0.0 | 0.00 | 0.00 | 0.00 | 83 | 991.4 |
| 20260502000122 | 80 | 0 | 0.0 | 0.0 | 0.00 | 0.00 | 0.00 | 83 | 991.3 |
| 20260501235613 | 80 | 0 | 0.0 | 0.0 | 0.00 | 0.00 | 0.00 | 83 | 991.3 |
| 20260501235103 | 80 | 0 | 0.0 | 0.0 | 0.00 | 0.00 | 0.00 | 83 | 991.2 |
| 20260501234554 | 80 | 0 | 0.0 | 0.0 | 0.00 | 0.00 | 0.00 | 83 | 991.2 |
| 20260501234046 | 79 | 0 | 0.0 | 0.0 | 0.00 | 0.00 | 0.00 | 83 | 991.1 |
| 20260501233538 | 79 | 0 | 0.0 | 0.0 | 0.00 | 0.00 | 0.00 | 83 | 991.1 |
| 20260501233029 | 79 | 0 | 0.0 | 0.0 | 0.00 | 0.00 | 0.00 | 83 | 991.1 |
| 20260501232520 | 79 | 0 | 0.0 | 0.0 | 0.00 | 0.00 | 0.00 | 83 | 991.1 |
| 20260501232012 | 79 | 0 | 0.0 | 0.0 | 0.00 | 0.00 | 0.00 | 83 | 991.0 |
| 20260501231503 | 78 | 0 | 0.0 | 0.0 | 0.00 | 0.00 | 0.00 | 83 | 991.0 |
| 20260501230952 | 78 | 0 | 0.0 | 0.0 | 0.00 | 0.00 | 0.00 | 83 | 991.0 |
| 20260501230444 | 78 | 0 | 0.0 | 0.0 | 0.00 | 0.00 | 0.00 | 83 | 990.9 |
| 20260501225933 | 78 | 0 | 0.0 | 0.0 | 0.00 | 0.00 | 0.00 | 83 | 990.9 |
| 20260501225424 | 78 | 0 | 0.0 | 0.0 | 0.00 | 0.00 | 0.00 | 83 | 990.8 |
| 20260501224915 | 78 | 0 | 0.0 | 0.0 | 0.00 | 0.00 | 0.00 | 82 | 990.8 |
| 20260501224405 | 78 | 0 | 0.0 | 0.0 | 0.00 | 0.00 | 0.00 | 82 | 990.8 |
| 20260501223856 | 78 | 0 | 0.0 | 0.0 | 0.00 | 0.00 | 0.00 | 82 | 990.7 |
| 20260501223346 | 78 | 0 | 0.0 | 0.0 | 0.00 | 0.00 | 0.00 | 82 | 990.6 |
| 20260501222837 | 78 | 0 | 0.0 | 0.0 | 0.00 | 0.00 | 0.00 | 82 | 990.6 |
| 20260501222328 | 78 | 0 | 0.0 | 0.0 | 0.00 | 0.00 | 0.00 | 82 | 990.5 |
| 20260501221819 | 78 | 0 | 0.0 | 0.0 | 0.00 | 0.00 | 0.00 | 82 | 990.5 |
| 20260501221310 | 78 | 0 | 0.0 | 0.0 | 0.00 | 0.00 | 0.00 | 82 | 990.4 |